• în România
  • Lista ţărilor
  • Pe 7 zile
  • Temperatura apei
  • Hartă satelitară
  • Meteo pe hartă
  • Widget-uri
  • user-avatar
    Intrare

    Meteo pe oră la Lenkoran

    Astăzi, 19 Octombrie, Vineri

    Timp Temperatura Precipitaţii Vânt Presiune Umiditate
    00:00 +9°C° 0 mm 1 m/s 637 mmHg 87%
    01:00 +9°C° 0 mm 1 m/s 637 mmHg 87%
    02:00 +8°C° 0 mm 1 m/s 637 mmHg 87%
    03:00 +8°C° 0 mm 1 m/s 637 mmHg 89%
    04:00 +8°C° 0 mm 1 m/s 637 mmHg 88%
    05:00 +7°C° 0 mm 1 m/s 637 mmHg 88%
    06:00 +7°C° 0 mm 1 m/s 637 mmHg 88%
    07:00 +9°C° 0 mm 1 m/s 637 mmHg 78%
    08:00 +10°C° 0 mm 2 m/s 638 mmHg 67%
    09:00 +13°C° 0 mm 2 m/s 639 mmHg 57%
    10:00 +14°C° 0 mm 2 m/s 639 mmHg 53%
    11:00 +15°C° 0 mm 2 m/s 639 mmHg 48%
    12:00 +16°C° 0 mm 3 m/s 639 mmHg 43%
    13:00 +16°C° 0 mm 3 m/s 638 mmHg 45%
    14:00 +16°C° 0 mm 3 m/s 638 mmHg 47%
    15:00 +16°C° 0 mm 3 m/s 638 mmHg 49%
    16:00 +14°C° 0 mm 3 m/s 638 mmHg 58%
    17:00 +13°C° 0 mm 2 m/s 637 mmHg 67%
    18:00 +12°C° 0 mm 2 m/s 637 mmHg 76%
    19:00 +10°C° 0 mm 2 m/s 637 mmHg 77%
    20:00 +10°C° 0 mm 2 m/s 637 mmHg 79%
    21:00 +9°C° 0 mm 2 m/s 637 mmHg 80%
    22:00 +9°C° 0 mm 2 m/s 636 mmHg 78%
    23:00 +9°C° 0 mm 2 m/s 636 mmHg 77%

    Mâine, 20 Octombrie, Sâmbătă

    Timp Temperatura Precipitaţii Vânt Presiune Umiditate
    00:00 +9°C° 0 mm 2 m/s 636 mmHg 75%
    01:00 +8°C° 0 mm 2 m/s 636 mmHg 72%
    02:00 +8°C° 0 mm 2 m/s 636 mmHg 69%
    03:00 +8°C° 0 mm 2 m/s 635 mmHg 67%
    04:00 +8°C° 0 mm 2 m/s 635 mmHg 65%
    05:00 +8°C° 0 mm 2 m/s 635 mmHg 63%
    06:00 +8°C° 0 mm 2 m/s 635 mmHg 61%
    07:00 +10°C° 0 mm 2 m/s 636 mmHg 54%
    08:00 +14°C° 0 mm 2 m/s 637 mmHg 47%
    09:00 +16°C° 0 mm 2 m/s 637 mmHg 39%
    10:00 +17°C° 0 mm 3 m/s 637 mmHg 39%
    11:00 +18°C° 0 mm 3 m/s 637 mmHg 39%
    12:00 +19°C° 0 mm 3 m/s 637 mmHg 39%
    13:00 +19°C° 0.1 mm 3 m/s 637 mmHg 40%
    14:00 +18°C° 0.1 mm 3 m/s 636 mmHg 42%
    15:00 +18°C° 0.1 mm 3 m/s 636 mmHg 44%
    16:00 +17°C° 0.2 mm 3 m/s 636 mmHg 50%
    17:00 +15°C° 0.2 mm 2 m/s 635 mmHg 56%
    18:00 +14°C° 0.2 mm 2 m/s 635 mmHg 62%
    19:00 +14°C° 0.2 mm 2 m/s 635 mmHg 61%
    20:00 +13°C° 0.2 mm 2 m/s 635 mmHg 60%
    21:00 +13°C° 0.2 mm 2 m/s 635 mmHg 59%
    22:00 +13°C° 0.1 mm 2 m/s 635 mmHg 57%
    23:00 +13°C° 0.1 mm 2 m/s 634 mmHg 55%

    Poimâine, 21 Octombrie, Duminică

    Timp Temperatura Precipitaţii Vânt Presiune Umiditate
    00:00 +12°C° 0.1 mm 2 m/s 634 mmHg 54%
    01:00 +12°C° 0.1 mm 2 m/s 634 mmHg 54%
    02:00 +12°C° 0.1 mm 2 m/s 634 mmHg 54%
    03:00 +12°C° 0.1 mm 1 m/s 634 mmHg 54%
    04:00 +12°C° 0.1 mm 1 m/s 634 mmHg 56%
    05:00 +11°C° 0.1 mm 1 m/s 634 mmHg 58%
    06:00 +11°C° 0.1 mm 1 m/s 634 mmHg 60%
    07:00 +13°C° 0 mm 2 m/s 634 mmHg 54%
    08:00 +15°C° 0 mm 2 m/s 635 mmHg 49%
    09:00 +17°C° 0 mm 2 m/s 636 mmHg 44%
    10:00 +18°C° 0 mm 2 m/s 636 mmHg 42%
    11:00 +19°C° 0 mm 3 m/s 636 mmHg 41%
    12:00 +20°C° 0 mm 3 m/s 636 mmHg 40%
    13:00 +19°C° 0.1 mm 3 m/s 635 mmHg 43%
    14:00 +18°C° 0.1 mm 3 m/s 635 mmHg 46%
    15:00 +18°C° 0.1 mm 3 m/s 634 mmHg 49%
    16:00 +17°C° 0 mm 3 m/s 634 mmHg 52%
    17:00 +16°C° 0 mm 3 m/s 634 mmHg 55%
    18:00 +15°C° 0 mm 2 m/s 634 mmHg 59%
    19:00 +14°C° 0 mm 2 m/s 634 mmHg 58%
    20:00 +14°C° 0 mm 2 m/s 634 mmHg 58%
    21:00 +14°C° 0 mm 2 m/s 634 mmHg 58%
    22:00 +14°C° 0 mm 2 m/s 634 mmHg 58%
    23:00 +13°C° 0 mm 2 m/s 633 mmHg 58%

    22 Octombrie, Luni

    Timp Temperatura Precipitaţii Vânt Presiune Umiditate
    00:00 +13°C° 0 mm 2 m/s 633 mmHg 58%
    01:00 +13°C° 0 mm 2 m/s 633 mmHg 59%
    02:00 +13°C° 0 mm 2 m/s 633 mmHg 61%
    03:00 +12°C° 0 mm 2 m/s 633 mmHg 62%
    04:00 +12°C° 0 mm 2 m/s 633 mmHg 64%
    05:00 +12°C° 0 mm 2 m/s 633 mmHg 65%
    06:00 +10°C° 0 mm 2 m/s 633 mmHg 67%
    07:00 +12°C° 0 mm 3 m/s 633 mmHg 60%
    08:00 +14°C° 0 mm 3 m/s 634 mmHg 53%
    09:00 +17°C° 0 mm 3 m/s 635 mmHg 46%
    10:00 +18°C° 0.1 mm 3 m/s 635 mmHg 44%
    11:00 +19°C° 0.1 mm 4 m/s 635 mmHg 42%
    12:00 +19°C° 0.1 mm 4 m/s 635 mmHg 39%
    13:00 +20°C° 0.1 mm 4 m/s 634 mmHg 39%
    14:00 +20°C° 0.1 mm 4 m/s 634 mmHg 39%
    15:00 +20°C° 0.1 mm 4 m/s 634 mmHg 38%
    16:00 +18°C° 0.1 mm 3 m/s 634 mmHg 41%
    17:00 +17°C° 0.1 mm 2 m/s 634 mmHg 45%
    18:00 +15°C° 0.1 mm 2 m/s 633 mmHg 48%
    19:00 +15°C° 0.1 mm 2 m/s 633 mmHg 47%
    20:00 +14°C° 0.1 mm 2 m/s 634 mmHg 46%
    21:00 +14°C° 0.1 mm 2 m/s 634 mmHg 45%
    22:00 +14°C° 0 mm 2 m/s 634 mmHg 45%
    23:00 +13°C° 0 mm 2 m/s 634 mmHg 46%

    23 Octombrie, Marţi

    Timp Temperatura Precipitaţii Vânt Presiune Umiditate
    00:00 +13°C° 0 mm 2 m/s 634 mmHg 46%
    01:00 +13°C° 0 mm 2 m/s 634 mmHg 47%
    02:00 +12°C° 0 mm 2 m/s 634 mmHg 49%
    03:00 +12°C° 0 mm 2 m/s 634 mmHg 50%
    04:00 +12°C° 0 mm 2 m/s 634 mmHg 52%
    05:00 +10°C° 0 mm 2 m/s 634 mmHg 54%
    06:00 +10°C° 0 mm 2 m/s 634 mmHg 56%
    07:00 +13°C° 0 mm 2 m/s 635 mmHg 50%
    08:00 +15°C° 0 mm 2 m/s 636 mmHg 45%
    09:00 +17°C° 0 mm 3 m/s 636 mmHg 40%
    10:00 +18°C° 0 mm 3 m/s 636 mmHg 38%
    11:00 +19°C° 0 mm 3 m/s 636 mmHg 36%
    12:00 +20°C° 0 mm 3 m/s 636 mmHg 34%
    13:00 +20°C° 0 mm 3 m/s 636 mmHg 33%
    14:00 +20°C° 0 mm 3 m/s 635 mmHg 33%
    15:00 +20°C° 0 mm 3 m/s 635 mmHg 32%
    16:00 +19°C° 0 mm 3 m/s 635 mmHg 34%
    17:00 +17°C° 0 mm 3 m/s 635 mmHg 36%
    18:00 +16°C° 0 mm 3 m/s 635 mmHg 39%
    19:00 +14°C° 0 mm 3 m/s 634 mmHg 38%
    20:00 +14°C° 0 mm 3 m/s 634 mmHg 37%
    21:00 +13°C° 0 mm 3 m/s 634 mmHg 36%
    22:00 +14°C° 0 mm 2 m/s 634 mmHg 36%
    23:00 +14°C° 0 mm 2 m/s 634 mmHg 36%

    24 Octombrie, Miercuri

    Timp Temperatura Precipitaţii Vânt Presiune Umiditate
    00:00 +14°C° 0 mm 2 m/s 634 mmHg 36%
    01:00 +13°C° 0 mm 2 m/s 633 mmHg 38%
    02:00 +13°C° 0 mm 2 m/s 633 mmHg 40%
    03:00 +13°C° 0 mm 2 m/s 633 mmHg 42%
    04:00 +13°C° 0 mm 2 m/s 633 mmHg 44%
    05:00 +13°C° 0 mm 2 m/s 633 mmHg 47%
    06:00 +12°C° 0 mm 2 m/s 633 mmHg 50%
    07:00 +13°C° 0 mm 3 m/s 634 mmHg 45%
    08:00 +17°C° 0 mm 3 m/s 634 mmHg 39%
    09:00 +19°C° 0 mm 3 m/s 635 mmHg 34%
    10:00 +20°C° 0 mm 4 m/s 635 mmHg 32%
    11:00 +21°C° 0 mm 4 m/s 634 mmHg 31%
    12:00 +22°C° 0 mm 4 m/s 634 mmHg 29%
    13:00 +22°C° 0.1 mm 5 m/s 634 mmHg 29%
    14:00 +22°C° 0.1 mm 5 m/s 633 mmHg 29%
    15:00 +22°C° 0.1 mm 5 m/s 633 mmHg 30%
    16:00 +20°C° 0 mm 4 m/s 632 mmHg 32%
    17:00 +19°C° 0 mm 4 m/s 632 mmHg 35%
    18:00 +17°C° 0 mm 4 m/s 631 mmHg 37%
    19:00 +17°C° 0 mm 4 m/s 631 mmHg 37%
    20:00 +15°C° 0 mm 4 m/s 631 mmHg 38%
    21:00 +15°C° 0 mm 4 m/s 631 mmHg 38%
    22:00 +16°C° 0 mm 3 m/s 630 mmHg 40%
    23:00 +16°C° 0 mm 3 m/s 630 mmHg 42%
    Arată mai mult